TimeBST,TemperatureF,Dew PointF,Humidity,Sea Level PressureIn,VisibilityMPH,Wind Direction,Wind SpeedMPH,Gust SpeedMPH,PrecipitationIn,Events,Conditions,WindDirDegrees,DateUTC
12:58 AM,52.2,50.4,94,29.85,6.2,SW,10.4,-,N/A,,Clear,220,2012-10-01 23:58:00
1:58 AM,51.8,49.5,92,29.85,6.2,SW,11.5,-,N/A,,Clear,220,2012-10-02 00:58:00
2:58 AM,50.9,49.1,94,29.85,6.2,SW,9.2,-,N/A,,Scattered Clouds,220,2012-10-02 01:58:00
3:58 AM,50.7,49.6,96,29.84,6.2,SW,10.4,-,N/A,,Mostly Cloudy,220,2012-10-02 02:58:00
4:58 AM,51.1,49.8,95,29.84,6.2,SW,10.4,-,N/A,,Mostly Cloudy,220,2012-10-02 03:58:00
5:58 AM,51.1,49.5,94,29.84,6.2,SSW,10.4,-,N/A,,Mostly Cloudy,210,2012-10-02 04:58:00
6:58 AM,51.6,49.6,93,29.83,6.2,SSW,9.2,-,N/A,,Overcast,210,2012-10-02 05:58:00
7:58 AM,51.8,49.6,92,29.83,6.2,SSW,11.5,-,N/A,,Overcast,210,2012-10-02 06:58:00
8:58 AM,53.1,50.5,91,29.84,6.2,SSW,11.5,-,N/A,,Mostly Cloudy,210,2012-10-02 07:58:00
9:58 AM,55.2,51.3,87,29.84,6.2,SSW,12.7,-,N/A,,Overcast,210,2012-10-02 08:58:00
10:58 AM,59.2,51.8,77,29.83,6.2,SSW,17.3,-,N/A,,Mostly Cloudy,210,2012-10-02 09:58:00
11:58 AM,61.5,51.1,69,29.81,6.2,SW,17.3,-,N/A,,Mostly Cloudy,220,2012-10-02 10:58:00
12:22 PM,62.6,51.8,68,29.79,6.2,SW,17.3,26.5,N/A,,Mostly Cloudy,230,2012-10-02 11:22:00
12:30 PM,62.6,51.8,68,29.79,6.2,SW,19.6,27.6,N/A,,Mostly Cloudy,220,2012-10-02 11:30:00
12:40 PM,62.6,51.8,68,29.79,6.2,SW,19.6,24.2,N/A,,Mostly Cloudy,230,2012-10-02 11:40:00
12:58 PM,61.7,50.5,67,29.79,6.2,SW,20.7,28.8,N/A,,Mostly Cloudy,220,2012-10-02 11:58:00
1:58 PM,63.5,51.3,64,29.77,6.2,SSW,15.0,24.2,N/A,,Overcast,210,2012-10-02 12:58:00
2:10 PM,64.4,51.8,64,29.75,5.0,SW,20.7,-,N/A,,Haze,220,2012-10-02 13:10:00
2:11 PM,62.6,51.8,68,29.75,5.0,SSW,20.7,-,N/A,,Haze,210,2012-10-02 13:11:00
2:12 PM,62.6,51.8,68,29.75,5.0,SW,20.7,-,N/A,Rain,Light Rain,220,2012-10-02 13:12:00
2:28 PM,64.4,51.8,64,29.75,6.2,SW,13.8,25.3,N/A,,Mostly Cloudy,220,2012-10-02 13:28:00
2:51 PM,64.4,51.8,64,29.74,6.2,SW,19.6,-,N/A,,Mostly Cloudy,220,2012-10-02 13:51:00
2:58 PM,63.3,51.6,66,29.75,6.2,SSW,17.3,31.1,0.00,,Mostly Cloudy,210,2012-10-02 13:58:00
3:37 PM,64.4,51.8,64,29.74,6.2,SSW,18.4,27.6,N/A,,Overcast,210,2012-10-02 14:37:00
3:38 PM,64.4,51.8,64,29.74,6.2,SSW,18.4,27.6,N/A,,Overcast,210,2012-10-02 14:38:00
3:58 PM,63.0,51.6,66,29.74,6.2,SSW,18.4,28.8,N/A,,Overcast,210,2012-10-02 14:58:00
4:58 PM,61.5,51.8,70,29.73,6.2,SSW,17.3,24.2,N/A,,Scattered Clouds,210,2012-10-02 15:58:00
5:58 PM,61.0,51.6,71,29.71,6.2,SSW,15.0,-,N/A,,Overcast,210,2012-10-02 16:58:00
6:32 PM,59.0,51.8,77,29.70,6.2,SSW,15.0,23.0,N/A,,Overcast,200,2012-10-02 17:32:00
6:35 PM,60.8,51.8,72,29.71,6.2,SSW,10.4,-,N/A,,Overcast,210,2012-10-02 17:35:00
6:39 PM,59.0,51.8,77,29.70,6.2,SSW,15.0,-,N/A,Rain,Light Rain,200,2012-10-02 17:39:00
6:51 PM,59.0,53.6,82,29.70,6.2,SSW,15.0,21.9,N/A,,Overcast,200,2012-10-02 17:51:00
6:58 PM,58.3,53.1,83,29.71,6.2,SSW,15.0,-,0.00,,Overcast,200,2012-10-02 17:58:00
7:41 PM,59.0,53.6,82,29.69,6.2,SSW,17.3,23.0,N/A,Rain,Light Rain,200,2012-10-02 18:41:00
7:57 PM,57.2,53.6,88,29.69,6.2,SSW,13.8,-,N/A,Rain,Light Rain,210,2012-10-02 18:57:00
7:58 PM,57.7,53.2,85,29.70,6.2,SSW,13.8,23.0,0.00,Rain,Light Rain,200,2012-10-02 18:58:00
8:01 PM,57.2,53.6,88,29.69,6.2,SSW,16.1,21.9,N/A,Rain,Light Rain,210,2012-10-02 19:01:00
8:32 PM,57.2,53.6,88,29.68,6.2,SSW,18.4,25.3,N/A,Rain,Light Rain,200,2012-10-02 19:32:00
8:38 PM,57.2,53.6,88,29.68,6.2,SSW,16.1,25.3,N/A,Rain,Light Rain,200,2012-10-02 19:38:00
8:49 PM,57.2,53.6,88,29.68,6.2,SSW,15.0,24.2,N/A,,Overcast,200,2012-10-02 19:49:00
8:58 PM,56.3,54.5,94,29.68,6.2,SSW,16.1,24.2,0.01,,Overcast,200,2012-10-02 19:58:00
9:26 PM,57.2,53.6,88,29.67,6.2,SSW,15.0,24.2,N/A,,Overcast,210,2012-10-02 20:26:00
9:58 PM,56.5,54.3,92,29.67,6.2,SSW,15.0,25.3,N/A,,Overcast,210,2012-10-02 20:58:00
10:08 PM,55.4,53.6,94,29.66,6.2,SSW,15.0,23.0,N/A,,Overcast,210,2012-10-02 21:08:00
10:17 PM,55.4,53.6,94,29.66,6.2,SSW,15.0,23.0,N/A,,Mostly Cloudy,200,2012-10-02 21:17:00
10:19 PM,55.4,53.6,94,29.66,6.2,SSW,12.7,23.0,N/A,,Mostly Cloudy,200,2012-10-02 21:19:00
10:23 PM,55.4,53.6,94,29.66,6.2,SSW,13.8,23.0,N/A,,Mostly Cloudy,210,2012-10-02 21:23:00
10:29 PM,55.4,53.6,94,29.66,6.2,SSW,13.8,21.9,N/A,,Scattered Clouds,210,2012-10-02 21:29:00
10:58 PM,55.6,53.4,92,29.66,6.2,SSW,13.8,23.0,N/A,,Partly Cloudy,200,2012-10-02 21:58:00
11:31 PM,57.2,53.6,88,29.64,6.2,SSW,18.4,24.2,N/A,,Mostly Cloudy,210,2012-10-02 22:31:00
11:51 PM,57.2,53.6,88,29.63,6.2,SSW,13.8,-,N/A,,Mostly Cloudy,200,2012-10-02 22:51:00
11:58 PM,56.5,53.8,91,29.64,6.2,SSW,18.4,24.2,N/A,,Mostly Cloudy,200,2012-10-02 22:58:00